{"data":{"norad_id":49108,"intl_designator":"2021-075AK","name":"ONEWEB-0330","alt_names":[],"object_type":"PAYLOAD","status":"ACTIVE","operator":null,"country":"UK","launch_date":"2021-08-21","launch_site_code":"TYMSC","launch_vehicle":null,"mission":null,"orbit_class":"UNKNOWN","rcs_meters":null,"size_class":null,"mass_kg":null,"dimensions":null,"purposes":["comms"],"wikipedia_slug":null,"has_3d_model":false,"image_url":null,"decayed_at":null,"tle_current":{"epoch":"2026-05-25T02:54:16.382016Z","epoch_age_seconds":61813,"freshness":"FRESH","line1":"1 49108U 21075AK  26145.12102294  .00000053  00000+0  10293-3 0  9991","line2":"2 49108  87.9156  10.4759 0001734  92.1424 267.9906 13.17648946230589","mean_motion":13.17648946,"eccentricity":0.0001734,"inclination_deg":87.9156,"raan_deg":10.4759,"arg_perigee_deg":92.1424,"mean_anomaly_deg":267.9906,"bstar":0.00010293,"rev_number":23058,"period_min":109.28555776343,"perigee_km":1192.4005078662,"apogee_km":1195.0264256081,"semimajor_km":7571.8504667372,"source":"CELESTRAK","updated_at":"2026-05-25T13:38:22.488267Z"}}}